H1 CPF 2 NER 2020 11 5 9 310 01 glonass136 H2 1603201 9136 41554 2020 11 5 0 0 0 2020 11 8 23 45 0 900 1 1 0 0 0 1 H9 10 0 59158 0.00000 0 19383290.075 16335952.516 -2596550.495 10 0 59158 900.00000 0 19025861.157 15945455.007 -5743305.415 10 0 59158 1800.00000 0 18316301.754 15382482.071 -8778111.667 10 0 59158 2700.00000 0 17246333.740 14702395.635 -11641798.495 10 0 59158 3600.00000 0 15820604.534 13962603.131 -14278535.432 10 0 59158 4500.00000 0 14056711.186 13219980.142 -16636933.361 10 0 59158 5400.00000 0 11984687.940 12528332.306 -18671056.080 10 0 59158 6300.00000 0 9645977.970 11936005.288 -20341321.760 10 0 59158 7200.00000 0 7091932.391 11483745.005 -21615276.191 10 0 59158 8100.00000 0 4381899.558 11202899.173 -22468222.703 10 0 59158 9000.00000 0 1580984.862 11114036.343 -22883696.858 10 0 59158 9900.00000 0 -1242424.942 11226040.412 -22853777.286 10 0 59158 10800.00000 0 -4019269.432 11535718.114 -22379227.537 10 0 59158 11700.00000 0 -6682445.604 12027935.051 -21469467.204 10 0 59158 12600.00000 0 -9169353.065 12676273.309 -20142373.963 10 0 59158 13500.00000 0 -11424248.247 13444181.740 -18423921.414 10 0 59158 14400.00000 0 -13400310.821 14286569.265 -16347660.689 10 0 59158 15300.00000 0 -15061337.884 15151773.048 -13954056.739 10 0 59158 16200.00000 0 -16382997.276 15983817.897 -11289692.863 10 0 59158 17100.00000 0 -17353590.022 16724871.217 -8406359.421 10 0 59158 18000.00000 0 -17974292.344 17317789.901 -5360044.826 10 0 59158 18900.00000 0 -18258869.497 17708652.007 -2209848.617 10 0 59158 19800.00000 0 -18232875.609 17849166.879 983162.316 10 0 59158 20700.00000 0 -17932374.891 17698862.776 4157132.171 10 0 59158 21600.00000 0 -17402239.394 17226960.483 7250606.902 10 0 59158 22500.00000 0 -16694095.740 16413854.632 10203714.548 10 0 59158 23400.00000 0 -15864007.536 15252140.856 12959313.020 10 0 59158 24300.00000 0 -14969990.795 13747145.765 15464084.081 10 0 59158 25200.00000 0 -14069466.269 11916937.167 17669553.410 10 0 59158 26100.00000 0 -13216754.889 9791813.409 19533018.094 10 0 59158 27000.00000 0 -12460720.509 7413291.920 21018364.744 10 0 59158 27900.00000 0 -11842657.901 4832637.426 22096763.454 10 0 59158 28800.00000 0 -11394513.823 2108989.153 22747224.845 10 0 59158 29700.00000 0 -11137515.272 -692837.373 22957009.939 10 0 59158 30600.00000 0 -11081262.408 -3504785.042 22721884.903 10 0 59158 31500.00000 0 -11223324.593 -6258127.402 22046215.295 10 0 59158 32400.00000 0 -11549357.392 -8886073.751 20942897.143 10 0 59158 33300.00000 0 -12033736.868 -11326300.490 19433124.867 10 0 59158 34200.00000 0 -12640686.029 -13523304.574 17545999.028 10 0 59158 35100.00000 0 -13325847.606 -15430481.773 15317979.790 10 0 59158 36000.00000 0 -14038238.357 -17011843.205 12792194.979 10 0 59158 36900.00000 0 -14722503.585 -18243298.106 10017614.724 10 0 59158 37800.00000 0 -15321377.298 -19113448.555 7048107.552 10 0 59158 38700.00000 0 -15778244.056 -19623862.148 3941395.541 10 0 59158 39600.00000 0 -16039693.506 -19788810.448 757928.808 10 0 59158 40500.00000 0 -16057958.288 -19634483.833 -2440298.418 10 0 59158 41400.00000 0 -15793130.395 -19197715.782 -5590966.203 10 0 59158 42300.00000 0 -15215060.172 -18524270.778 -8632656.685 10 0 59158 43200.00000 0 -14304855.490 -17666769.010 -11506065.805 10 0 59158 44100.00000 0 -13055915.635 -16682336.724 -14155173.797 10 0 59158 45000.00000 0 -11474454.515 -15630083.013 -16528350.000 10 0 59158 45900.00000 0 -9579489.658 -14568511.188 -18579369.259 10 0 59158 46800.00000 0 -7402296.480 -13552975.521 -20268319.168 10 0 59158 47700.00000 0 -4985350.235 -12633291.928 -21562379.928 10 0 59158 48600.00000 0 -2380799.845 -11851604.158 -22436461.585 10 0 59158 49500.00000 0 351462.461 -11240595.722 -22873686.562 10 0 59158 50400.00000 0 3146054.672 -10822122.702 -22865708.716 10 0 59158 51300.00000 0 5934587.462 -10606324.231 -22412863.593 10 0 59158 52200.00000 0 8648272.016 -10591246.983 -21524147.999 10 0 59158 53100.00000 0 11220544.672 -10762998.005 -20217030.321 10 0 59158 54000.00000 0 13589599.627 -11096417.872 -18517096.344 10 0 59158 54900.00000 0 15700725.143 -11556244.202 -16457538.366 10 0 59158 55800.00000 0 17508347.151 -12098715.034 -14078498.374 10 0 59158 56700.00000 0 18977696.752 -12673543.277 -11426278.741 10 0 59158 57600.00000 0 20086033.980 -13226178.046 -8552436.250 10 0 59158 58500.00000 0 20823378.792 -13700256.956 -5512777.467 10 0 59158 59400.00000 0 21192720.925 -14040145.716 -2366275.191 10 0 59158 60300.00000 0 21209701.933 -14193457.976 826073.024 10 0 59158 61200.00000 0 20901784.584 -14113449.502 4002422.132 10 0 59158 62100.00000 0 20306945.983 -13761186.232 7101270.187 10 0 59158 63000.00000 0 19471950.369 -13107395.364 10062639.746 10 0 59158 63900.00000 0 18450274.637 -12133921.988 12829227.800 10 0 59158 64800.00000 0 17299773.784 -10834730.202 15347502.955 10 0 59158 65700.00000 0 16080183.804 -9216406.459 17568729.654 10 0 59158 66600.00000 0 14850566.062 -7298143.476 19449900.703 10 0 59158 67500.00000 0 13666799.235 -5111204.253 20954561.202 10 0 59158 68400.00000 0 12579222.776 -2697886.960 22053508.962 10 0 59158 69300.00000 0 11630529.558 -110031.908 22725358.570 10 0 59158 70200.00000 0 10853995.016 2592869.564 22956958.692 10 0 59158 71100.00000 0 10272116.430 5345888.144 22743654.564 10 0 59158 72000.00000 0 9895719.177 8081101.929 22089390.170 10 0 59158 72900.00000 0 9723567.734 10730174.844 21006647.287 10 0 59158 73800.00000 0 9742498.433 13226962.850 19516221.319 10 0 59158 74700.00000 0 9928069.477 15510040.890 17646836.734 10 0 59158 75600.00000 0 10245702.065 17525046.308 15434607.853 10 0 59158 76500.00000 0 10652265.789 19226741.303 12922353.735 10 0 59158 77400.00000 0 11098042.520 20580708.019 10158779.011 10 0 59158 78300.00000 0 11528986.468 21564604.774 7197535.369 10 0 59158 79200.00000 0 11889185.062 22168929.893 4096181.210 10 0 59158 80100.00000 0 12123416.060 22397260.160 915059.605 10 0 59158 81000.00000 0 12179691.623 22265953.104 -2283883.276 10 0 59158 81900.00000 0 12011680.017 21803325.219 -5438315.400 10 0 59158 82800.00000 0 11580900.471 21048340.703 -8486746.732 10 0 59158 83700.00000 0 10858596.104 20048866.491 -11369742.278 10 0 59158 84600.00000 0 9827203.503 18859568.066 -14031095.141 10 0 59158 85500.00000 0 8481354.855 17539536.083 -16418935.067 10 0 59159 0.00000 0 6828368.693 16149745.336 -18486749.642 10 0 59159 900.00000 0 4888206.786 14750454.740 -20194297.479 10 0 59159 1800.00000 0 2692899.392 13398658.706 -21508394.520 10 0 59159 2700.00000 0 285460.638 12145699.146 -22403558.697 10 0 59159 3600.00000 0 -2281658.930 11035137.713 -22862500.301 10 0 59159 4500.00000 0 -4948518.739 10100978.713 -22876449.189 10 0 59159 5400.00000 0 -7649951.647 9366316.185 -22445313.403 10 0 59159 6300.00000 0 -10318050.008 8842460.985 -21577667.115 10 0 59159 7200.00000 0 -12884770.564 8528582.958 -20290569.189 10 0 59159 8100.00000 0 -15284549.931 8411881.376 -18609216.943 10 0 59159 9000.00000 0 -17456822.287 8468274.489 -16566442.776 10 0 59159 9900.00000 0 -19348335.203 8663577.282 -14202064.294 10 0 59159 10800.00000 0 -20915168.358 8955116.077 -11562101.216 10 0 59159 11700.00000 0 -22124372.510 9293710.517 -8697874.785 10 0 59159 12600.00000 0 -22955161.969 9625938.291 -5665007.583 10 0 59159 13500.00000 0 -23399612.737 9896586.385 -2522343.382 10 0 59159 14400.00000 0 -23462838.946 10051185.137 669192.008 10 0 59159 15300.00000 0 -23162641.999 10038518.216 3847766.804 10 0 59159 16200.00000 0 -22528648.643 9813002.916 6951833.776 10 0 59159 17100.00000 0 -21600975.245 9336840.796 9921312.692 10 0 59159 18000.00000 0 -20428474.982 8581848.496 12698742.382 10 0 59159 18900.00000 0 -19066641.639 7530891.935 15230381.055 10 0 59159 19800.00000 0 -17575257.580 6178863.546 17467234.622 10 0 59159 20700.00000 0 -16015883.741 4533161.196 19365994.169 10 0 59159 21600.00000 0 -14449295.669 2613647.769 20889865.627 10 0 59159 22500.00000 0 -12932971.617 452091.715 22009276.576 10 0 59159 23400.00000 0 -11518736.492 -1908889.904 22702447.276 10 0 59159 24300.00000 0 -10250658.921 -4417344.062 22955815.360 10 0 59159 25200.00000 0 -9163288.367 -7013889.647 22764306.052 10 0 59159 26100.00000 0 -8280305.439 -9633943.646 22131442.251 10 0 59159 27000.00000 0 -7613641.641 -12210175.526 21069291.553 10 0 59159 27900.00000 0 -7163105.598 -14675089.890 19598249.997 10 0 59159 28800.00000 0 -6916532.053 -16963631.500 17746665.186 10 0 59159 29700.00000 0 -6850448.176 -19015705.323 15550304.423 10 0 59159 30600.00000 0 -6931230.067 -20778507.022 13051676.461 10 0 59159 31500.00000 0 -7116701.644 -22208566.361 10299218.550 10 0 59159 32400.00000 0 -7358109.024 -23273417.503 7346363.381 10 0 59159 33300.00000 0 -7602387.193 -23952825.244 4250503.280 10 0 59159 34200.00000 0 -7794622.789 -24239514.538 1071871.685 10 0 59159 35100.00000 0 -7880607.871 -24139371.604 -2127636.044 10 0 59159 36000.00000 0 -7809375.100 -23671107.278 -5285678.670 10 0 59159 36900.00000 0 -7535605.107 -22865396.276 -8340696.977 10 0 59159 37800.00000 0 -7021802.015 -21763528.666 -11233128.124 10 0 59159 38700.00000 0 -6240142.746 -20415630.827 -13906581.189 10 0 59159 39600.00000 0 -5173919.838 -18878531.770 -16308949.400 10 0 59159 40500.00000 0 -3818514.904 -17213365.937 -18393436.093 10 0 59159 41400.00000 0 -2181860.096 -15483014.681 -20119473.478 10 0 59159 42300.00000 0 -284367.077 -13749495.371 -21453515.673 10 0 59159 43200.00000 0 1841674.253 -12071408.866 -22369690.510 10 0 59159 44100.00000 0 4153202.404 -10501553.145 -22850297.678 10 0 59159 45000.00000 0 6597949.930 -9084803.353 -22886144.111 10 0 59159 45900.00000 0 9116402.446 -7856346.685 -22476710.959 10 0 59159 46800.00000 0 11644068.994 -6840345.028 -21630149.933 10 0 59159 47700.00000 0 14113968.818 -6049079.923 -20363110.118 10 0 59159 48600.00000 0 16459230.813 -5482613.725 -18700399.699 10 0 59159 49500.00000 0 18615697.607 -5128978.989 -16674490.095 10 0 59159 50400.00000 0 20524426.111 -4964885.885 -14324872.985 10 0 59159 51300.00000 0 22133981.168 -4956915.724 -11697283.435 10 0 59159 52200.00000 0 23402427.756 -5063148.402 -8842804.673 10 0 59159 53100.00000 0 24298939.898 -5235153.666 -5816872.391 10 0 59159 54000.00000 0 24804960.653 -5420261.064 -2678198.058 10 0 59159 54900.00000 0 24914866.342 -5564012.088 512367.796 10 0 59159 55800.00000 0 24636108.763 -5612690.754 3693010.324 10 0 59159 56700.00000 0 23988830.884 -5515825.844 6802140.689 10 0 59159 57600.00000 0 23004973.243 -5228559.532 9779579.413 10 0 59159 58500.00000 0 21726909.201 -4713782.927 12567710.467 10 0 59159 59400.00000 0 20205666.499 -3943948.923 15112584.635 10 0 59159 60300.00000 0 18498809.349 -2902486.217 17364951.889 10 0 59159 61200.00000 0 16668069.037 -1584754.942 19281203.795 10 0 59159 62100.00000 0 14776821.065 1496.779 20824208.899 10 0 59159 63000.00000 0 12887512.892 1836195.651 21964025.929 10 0 59159 63900.00000 0 11059148.285 3887524.263 22678481.781 10 0 59159 64800.00000 0 9344931.810 6112998.247 22953603.609 10 0 59159 65700.00000 0 7790170.465 8460996.993 22783896.757 10 0 59159 66600.00000 0 6430519.089 10872686.612 22172462.748 10 0 59159 67500.00000 0 5290642.144 13284257.630 21130954.302 10 0 59159 68400.00000 0 4383347.563 15629386.544 19679366.985 10 0 59159 69300.00000 0 3709229.104 17841820.527 17845670.067 10 0 59159 70200.00000 0 3256832.608 19857978.923 15665282.044 10 0 59159 71100.00000 0 3003339.834 21619463.713 13180399.270 10 0 59159 72000.00000 0 2915741.781 23075374.043 10439189.278 10 0 59159 72900.00000 0 2952452.577 24184327.477 7494863.210 10 0 59159 73800.00000 0 3065296.012 24916102.291 4404644.589 10 0 59159 74700.00000 0 3201780.592 25252830.520 1228654.371 10 0 59159 75600.00000 0 3307566.114 25189690.321 -1971265.795 10 0 59159 76500.00000 0 3329016.072 24735067.250 -5132768.347 10 0 59159 77400.00000 0 3215726.159 23910176.700 -8194227.683 10 0 59159 78300.00000 0 2922919.685 22748162.937 -11095955.733 10 0 59159 79200.00000 0 2413606.355 21292712.615 -13781379.958 10 0 59159 80100.00000 0 1660410.857 19596241.660 -16198159.222 10 0 59159 81000.00000 0 646991.983 17717732.660 -18299214.483 10 0 59159 81900.00000 0 -631009.359 15720314.804 -20043653.279 10 0 59159 82800.00000 0 -2165534.473 13668689.244 -21397569.328 10 0 59159 83700.00000 0 -3936202.773 11626508.976 -22334701.575 10 0 59159 84600.00000 0 -5910935.733 9653823.802 -22836940.114 10 0 59159 85500.00000 0 -8047082.781 7804697.763 -22894669.685 10 0 59160 0.00000 0 -10293001.842 6125098.448 -22506944.996 10 0 59160 900.00000 0 -12590028.404 4651145.807 -21681495.322 10 0 59160 1800.00000 0 -14874749.970 3407791.791 -20434559.657 10 0 59160 2700.00000 0 -17081491.278 2407985.358 -18790556.285 10 0 59160 3600.00000 0 -19144906.320 1652354.029 -16781594.478 10 0 59160 4500.00000 0 -21002569.045 1129414.151 -14446838.467 10 0 59160 5400.00000 0 -22597455.239 816297.936 -11831736.835 10 0 59160 6300.00000 0 -23880212.689 679964.607 -8987132.741 10 0 59160 7200.00000 0 -24811125.735 678842.642 -5968272.738 10 0 59160 8100.00000 0 -25361693.366 764832.316 -2833733.610 10 0 59160 9000.00000 0 -25515756.161 885582.961 355711.903 10 0 59160 9900.00000 0 -25270126.266 986948.194 3538268.506 10 0 59160 10800.00000 0 -24634695.286 1015515.236 6652308.456 10 0 59160 11700.00000 0 -23632016.605 921101.710 9637555.816 10 0 59160 12600.00000 0 -22296380.312 659114.914 12436242.495 10 0 59160 13500.00000 0 -20672419.766 192674.548 14994214.637 10 0 59160 14400.00000 0 -18813307.878 -505590.185 17261968.945 10 0 59160 15300.00000 0 -16778617.920 -1452144.547 19195599.938 10 0 59160 16200.00000 0 -14631937.179 -2651612.210 20757640.972 10 0 59160 17100.00000 0 -12438331.604 -4096339.191 21917783.776 10 0 59160 18000.00000 0 -10261765.702 -5766477.225 22653463.347 10 0 59160 18900.00000 0 -8162583.530 -7630584.830 22950297.410 10 0 59160 19800.00000 0 -6195154.182 -9646723.126 22802372.063 10 0 59160 20700.00000 0 -4405778.624 -11764003.013 22212367.697 10 0 59160 21600.00000 0 -2830944.094 -13924521.710 21191522.012 10 0 59160 22500.00000 0 -1495998.278 -16065610.279 19759429.606 10 0 59160 23400.00000 0 -414298.493 -18122300.418 17943680.575 10 0 59160 24300.00000 0 413128.448 -20029909.136 15779343.428 10 0 59160 25200.00000 0 997401.032 -21726634.360 13308300.637 10 0 59160 26100.00000 0 1361079.768 -23156053.116 10578448.237 10 0 59160 27000.00000 0 1536974.989 -24269417.358 7642773.784 10 0 59160 27900.00000 0 1566515.764 -25027650.239 4558329.750 10 0 59160 28800.00000 0 1497748.852 -25402957.612 1385122.180 10 0 59160 29700.00000 0 1383052.879 -25379985.480 -1815063.551 10 0 59160 30600.00000 0 1276665.515 -24956473.119 -4979876.239 10 0 59160 31500.00000 0 1232129.821 -24143372.984 -8047626.655 10 0 59160 32400.00000 0 1299769.822 -22964431.359 -10958504.323 10 0 59160 33300.00000 0 1524304.283 -21455246.867 -13655757.931 10 0 59160 34200.00000 0 1942701.831 -19661846.429 -16086814.786 10 0 59160 35100.00000 0 2582370.156 -17638839.035 -18204316.174 10 0 59160 36000.00000 0 3459757.602 -15447225.626 -19967047.474 10 0 59160 36900.00000 0 4579427.518 -13151958.079 -21340744.243 10 0 59160 37800.00000 0 5933645.356 -10819350.548 -22298758.442 10 0 59160 38700.00000 0 7502496.500 -8514452.371 -22822572.080 10 0 59160 39600.00000 0 9254529.982 -6298492.915 -22902148.827 10 0 59160 40500.00000 0 11147900.979 -4226505.101 -22536117.621 10 0 59160 41400.00000 0 13131963.943 -2345226.256 -21731785.707 10 0 59160 42300.00000 0 15149249.178 -691362.872 -20504981.901 10 0 59160 43200.00000 0 17137739.832 709709.999 -18879734.197 10 0 59160 44100.00000 0 19033353.845 1844762.503 -16887788.926 10 0 59160 45000.00000 0 20772526.950 2713005.246 -14567981.680 10 0 59160 45900.00000 0 22294788.954 3325856.348 -11965472.928 10 0 59160 46800.00000 0 23545225.976 3706192.594 -9130863.691 10 0 59160 47700.00000 0 24476726.331 3887118.506 -6119208.892 10 0 59160 48600.00000 0 25051916.957 3910307.135 -2988947.764 10 0 59160 49500.00000 0 25244710.421 3823984.040 199227.892 10 0 59160 50400.00000 0 25041398.762 3680640.502 3383545.672 10 0 59160 51300.00000 0 24441249.479 3534572.994 6502342.328 10 0 59160 52200.00000 0 23456579.546 3439352.890 9495248.809 10 0 59160 53100.00000 0 22112304.996 3445332.892 12304348.179 10 0 59160 54000.00000 0 20444985.179 3597294.920 14875284.923 10 0 59160 54900.00000 0 18501401.430 3932338.072 17158305.195 10 0 59160 55800.00000 0 16336728.960 4478095.187 19109208.887 10 0 59160 56700.00000 0 14012377.184 5251352.867 20690196.273 10 0 59160 57600.00000 0 11593587.103 6257133.219 21870593.857 10 0 59160 58500.00000 0 9146884.220 7488276.574 22627446.148 10 0 59160 59400.00000 0 6737491.218 8925543.928 22945962.478 10 0 59160 60300.00000 0 4426806.277 10538236.621 22819810.321 10 0 59160 61200.00000 0 2270050.432 12285309.404 22251249.109 10 0 59160 62100.00000 0 314180.588 14116932.747 21251101.230 10 0 59160 63000.00000 0 -1403845.871 15976441.494 19838559.555 10 0 59160 63900.00000 0 -2858382.907 17802590.547 18040833.801 10 0 59160 64800.00000 0 -4035929.523 19532025.087 15892640.874 10 0 59160 65700.00000 0 -4935450.262 21101863.217 13435547.388 10 0 59160 66600.00000 0 -5568168.657 22452283.365 10717175.615 10 0 59160 67500.00000 0 -5956841.947 23529007.875 7790287.005 10 0 59160 68400.00000 0 -6134547.310 24285577.741 4711760.276 10 0 59160 69300.00000 0 -6143030.742 24685321.569 1541483.722 10 0 59160 70200.00000 0 -6030688.709 24702934.277 -1658816.495 10 0 59160 71100.00000 0 -5850268.766 24325597.291 -4826788.471 10 0 59160 72000.00000 0 -5656387.690 23553591.305 -7900682.268 10 0 59160 72900.00000 0 -5502973.897 22400374.386 -10820567.793 10 0 59160 73800.00000 0 -5440744.395 20892121.018 -13529517.583 10 0 59160 74700.00000 0 -5514825.082 19066741.020 -15974729.786 10 0 59160 75600.00000 0 -5762617.103 16972419.486 -18108568.164 10 0 59160 76500.00000 0 -6212001.210 14665739.446 -19889497.836 10 0 59160 77400.00000 0 -6879957.397 12209466.724 -21282897.838 10 0 59160 78300.00000 0 -7771659.043 9670090.601 -22261734.538 10 0 59160 79200.00000 0 -8880080.319 7115223.906 -22807082.987 10 0 59160 80100.00000 0 -10186133.528 4610971.812 -22908486.615 10 0 59160 81000.00000 0 -11659330.421 2219379.294 -22564149.114 10 0 59160 81900.00000 0 -13258939.330 -3936.592 -21780955.792 10 0 59160 82800.00000 0 -14935588.984 -2011871.686 -20574325.036 10 0 59160 83700.00000 0 -16633251.207 -3767551.452 -18967893.843 10 0 59160 84600.00000 0 -18291518.964 -5245609.757 -16993044.498 10 0 59160 85500.00000 0 -19848083.918 -6432978.567 -14688282.468 10 0 59161 0.00000 0 -21241309.658 -7329158.114 -12098478.374 10 0 59161 900.00000 0 -22412792.797 -7945958.845 -9273988.910 10 0 59161 1800.00000 0 -23309805.519 -8306728.737 -6269675.152 10 0 59161 2700.00000 0 -23887516.714 -8445100.200 -3143836.339 10 0 59161 3600.00000 0 -24110900.789 -8403311.921 42919.261 10 0 59161 4500.00000 0 -23956253.877 -8230177.153 3228844.841 10 0 59161 5400.00000 0 -23412255.323 -7978785.285 6352244.466 10 0 59161 6300.00000 0 -22480530.514 -7704033.932 9352658.858 10 0 59161 7200.00000 0 -21175692.043 -7460095.596 12172025.145 10 0 59161 8100.00000 0 -19524857.703 -7297925.304 14755789.020 10 0 59161 9000.00000 0 -17566665.182 -7262913.726 17053948.824 10 0 59161 9900.00000 0 -15349824.082 -7392783.945 19022012.342 10 0 59161 10800.00000 0 -12931264.529 -7715819.925 20621848.979 10 0 59161 11700.00000 0 -10373958.074 -8249500.956 21822421.854 10 0 59161 12600.00000 0 -7744499.910 -8999599.639 22600386.431 10 0 59161 13500.00000 0 -5110551.008 -9959781.996 22940544.653 10 0 59161 14400.00000 0 -2538244.568 -11111727.706 22836145.964 10 0 59161 15300.00000 0 -89662.800 -12425767.119 22289029.030 10 0 59161 16200.00000 0 2179512.621 -13862010.409 21309600.756 10 0 59161 17100.00000 0 4222079.967 -15371923.797 19916651.779 10 0 59161 18000.00000 0 6001040.794 -16900288.981 18137010.596 10 0 59161 18900.00000 0 7490895.775 -18387465.569 16005041.356 10 0 59161 19800.00000 0 8678458.884 -19771863.166 13561993.342 10 0 59161 20700.00000 0 9563155.527 -20992520.167 10855213.256 10 0 59161 21600.00000 0 10156791.754 -21991681.163 7937234.346 10 0 59161 22500.00000 0 10482803.902 -22717264.057 4864759.198 10 0 59161 23400.00000 0 10575020.072 -23125111.934 1697555.751 10 0 59161 24300.00000 0 10475985.861 -23180933.220 -1502711.806 10 0 59161 25200.00000 0 10234925.681 -22861846.490 -4673693.740 10 0 59161 26100.00000 0 9905426.855 -22157462.826 -7753582.303 10 0 59161 27000.00000 0 9542945.940 -21070458.296 -10682330.684 10 0 59161 27900.00000 0 9202244.583 -19616610.913 -13402838.098 10 0 59161 28800.00000 0 8934865.311 -17824299.462 -15862076.259 10 0 59161 29700.00000 0 8786755.984 -15733484.751 -18012133.955 10 0 59161 30600.00000 0 8796145.089 -13394215.920 -19811158.361 10 0 59161 31500.00000 0 8991759.053 -10864724.863 -21224174.011 10 0 59161 32400.00000 0 9391457.836 -8209189.099 -22223763.342 10 0 59161 33300.00000 0 10001346.901 -5495257.278 -22790595.719 10 0 59161 34200.00000 0 10815403.049 -2791441.292 -22913795.199 10 0 59161 35100.00000 0 11815629.608 -164484.068 -22591140.701 10 0 59161 36000.00000 0 12972733.866 2323187.380 -21829095.699 10 0 59161 36900.00000 0 14247297.510 4615818.006 -20642667.897 10 0 59161 37800.00000 0 15591390.099 6666392.872 -19055102.717 10 0 59161 38700.00000 0 16950557.087 8438332.830 -17097417.495 10 0 59161 39600.00000 0 18266098.265 9906748.971 -14807786.336 10 0 59161 40500.00000 0 19477540.614 11059205.908 -12230788.304 10 0 59161 41400.00000 0 20525201.592 11895964.553 -9416534.074 10 0 59161 42300.00000 0 21352735.329 12429696.762 -6419688.488 10 0 59161 43200.00000 0 21909555.199 12684686.327 -3298408.216 10 0 59161 44100.00000 0 22153031.584 12695552.000 -113215.183 10 0 59161 45000.00000 0 22050373.239 12505547.978 3074172.374 10 0 59161 45900.00000 0 21580113.986 12164514.627 6202028.873 10 0 59161 46800.00000 0 20733142.999 11726566.472 9209807.819 10 0 59161 47700.00000 0 19513235.905 11247615.031 12039303.315 10 0 59161 48600.00000 0 17937064.636 10782830.628 14635765.012 10 0 59161 49500.00000 0 16033685.312 10384149.548 16948945.992 10 0 59161 50400.00000 0 13843524.994 10097930.692 18934064.263 10 0 59161 51300.00000 0 11416908.444 9962859.629 20552660.454 10 0 59161 52200.00000 0 8812184.760 10008187.513 21773336.132 10 0 59161 53100.00000 0 6093530.142 10252378.620 22572359.244 10 0 59161 54000.00000 0 3328516.057 10702223.390 22934125.548 10 0 59161 54900.00000 0 585541.710 11352454.862 22851467.270 10 0 59161 55800.00000 0 -2068764.437 12185885.720 22325802.707 10 0 59161 56700.00000 0 -4572068.057 13174061.732 21367123.203 10 0 59161 57600.00000 0 -6868673.807 14278406.103 19993816.602 10 0 59161 58500.00000 0 -8911595.080 15451808.638 18232329.144 10 0 59161 59400.00000 0 -10664263.031 16640594.935 16116670.745 10 0 59161 60300.00000 0 -12101803.735 17786794.469 13687771.486 10 0 59161 61200.00000 0 -13211829.818 18830613.283 10992700.328 10 0 59161 62100.00000 0 -13994713.022 19713007.716 8083759.897 10 0 59161 63000.00000 0 -14463325.800 20378250.570 5017474.052 10 0 59161 63900.00000 0 -14642262.419 20776380.625 1853487.655 10 0 59161 64800.00000 0 -14566572.324 20865430.768 -1346599.867 10 0 59161 65700.00000 0 -14280059.502 20613338.824 -4520443.799 10 0 59161 66600.00000 0 -13833220.408 19999458.393 -7606181.418 10 0 59161 67500.00000 0 -13280908.802 19015603.862 -10543651.982 10 0 59161 68400.00000 0 -12679827.780 17666583.671 -13275584.058 10 0 59161 69300.00000 0 -12085956.826 15970197.863 -15748725.422 10 0 59161 70200.00000 0 -11552024.500 13956698.991 -17914892.164 10 0 59161 71100.00000 0 -11125135.265 11667738.444 -19731915.527 10 0 59161 72000.00000 0 -10844652.128 9154842.356 -21164467.279 10 0 59161 72900.00000 0 -10740425.453 6477481.153 -22184747.364 10 0 59161 73800.00000 0 -10831443.203 3700813.896 -22773020.595 10 0 59161 74700.00000 0 -11124959.520 893202.193 -22917992.465 10 0 59161 75600.00000 0 -11616137.960 -1876402.313 -22617017.588 10 0 59161 76500.00000 0 -12288223.624 -4541087.951 -21876137.699 10 0 59161 77400.00000 0 -13113235.944 -7038521.228 -20709949.532 10 0 59161 78300.00000 0 -14053151.878 -9313288.343 -19141306.255 10 0 59161 79200.00000 0 -15061528.665 -11318943.799 -17200859.202 10 0 59161 80100.00000 0 -16085496.936 -13019682.365 -14926449.716 10 0 59161 81000.00000 0 -17068039.614 -14391566.790 -12362363.683 10 0 59161 81900.00000 0 -17950460.279 -15423262.382 -9558463.716 10 0 59161 82800.00000 0 -18674936.971 -16116250.141 -6569216.371 10 0 59161 83700.00000 0 -19187054.104 -16484512.030 -3452633.478 10 0 59161 84600.00000 0 -19438206.295 -16553703.820 -269148.220 10 0 59161 85500.00000 0 -19387773.520 -16359852.152 2919552.257 99